Date,TemperatureHighF,TemperatureAvgF,TemperatureLowF,DewpointHighF,DewpointAvgF,DewpointLowF,HumidityHigh,HumidityAvg,HumidityLow,PressureMaxIn,PressureMinIn,WindSpeedMaxMPH,WindSpeedAvgMPH,GustSpeedMaxMPH,PrecipitationSumIn
2013-1-1,51.9,49.8,46.0,50.3,43.6,29.5,97,81,46,30.05,29.84,10,1,10,0.46
2013-1-2,54.5,51.9,49.6,51.5,47.7,42.3,98,86,69,30.03,29.80,11,1,11,0.01
2013-1-3,50.1,46.8,40.9,47.3,43.2,33.5,95,87,75,30.21,29.98,12,4,12,0.00
2013-1-4,54.4,42.7,33.8,37.1,27.8,13.9,93,60,25,30.27,30.12,17,3,20,0.00
2013-1-5,48.2,42.0,32.7,36.2,27.7,21.5,84,58,39,30.32,30.14,15,1,15,0.00
2013-1-6,57.6,47.4,42.1,41.7,35.8,28.3,82,66,38,30.15,29.93,20,2,20,0.01
2013-1-7,54.2,45.8,37.2,38.9,33.3,25.9,93,65,34,30.31,30.11,13,2,13,0.00
2013-1-8,45.4,40.7,39.1,38.4,35.9,33.5,92,83,66,30.35,30.27,10,3,10,0.00
2013-1-9,64.0,57.2,51.3,56.0,49.5,40.9,90,76,66,30.33,30.25,3,1,9,0.00
2013-1-10,67.6,61.6,53.8,56.6,53.6,51.7,95,76,58,30.36,30.20,14,4,14,0.03
2013-1-11,58.3,55.8,54.4,56.6,54.4,53.0,97,95,91,30.20,30.05,12,3,12,0.44
2013-1-12,70.6,61.4,56.6,63.3,58.8,55.8,99,92,72,30.07,29.97,9,0,9,0.01
2013-1-13,66.1,61.3,57.2,62.0,59.7,56.6,99,95,84,30.03,29.93,4,0,5,0.02
2013-1-14,66.0,63.5,61.6,65.1,62.9,61.0,99,98,97,29.99,29.92,10,0,10,0.11
2013-1-15,62.9,57.6,50.8,62.3,56.6,49.1,98,96,92,29.99,29.91,13,3,13,0.68
2013-1-16,55.0,52.1,49.4,54.5,50.6,47.5,98,95,92,29.93,29.85,10,2,10,0.22
2013-1-17,55.9,52.1,44.3,54.8,49.9,36.0,98,93,64,30.11,29.62,24,4,24,1.16
2013-1-18,53.9,44.3,35.3,41.0,33.5,19.8,97,69,28,30.40,30.11,14,2,14,0.00
2013-1-19,53.5,44.0,35.0,40.8,34.1,26.3,99,72,37,30.40,30.11,9,1,9,0.01
2013-1-20,65.5,50.1,37.9,42.5,34.0,23.6,97,59,27,30.11,29.92,17,1,17,0.00
2013-1-21,60.7,47.0,36.5,40.9,30.7,17.9,94,57,27,29.99,29.86,24,2,24,0.00
2013-1-22,47.3,39.8,34.3,22.5,13.7,3.8,52,35,20,30.18,29.97,34,5,34,0.00
2013-1-23,52.9,41.7,31.8,32.3,22.8,10.8,69,47,37,30.25,29.99,25,2,25,0.00
2013-1-24,55.9,47.9,33.5,37.0,23.0,-0.3,67,41,10,30.39,29.92,32,9,32,0.00
2013-1-25,33.4,30.7,28.4,30.5,20.5,9.5,92,68,41,30.41,30.05,11,3,14,0.00
2013-1-26,55.1,41.8,31.9,42.0,35.8,27.4,100,82,40,30.23,30.03,9,1,9,0.05
2013-1-27,47.4,42.7,35.6,40.0,33.2,29.4,88,69,56,30.45,30.23,13,4,13,0.00
2013-1-28,52.3,47.6,44.1,45.1,38.3,31.0,90,70,56,30.38,30.18,7,0,9,0.00
2013-1-29,66.0,55.8,44.3,58.8,51.6,42.4,96,86,72,30.18,29.89,9,1,9,0.03
2013-1-30,67.9,61.1,47.7,62.9,57.5,43.6,98,88,75,29.90,29.36,29,3,29,0.97
2013-1-31,47.7,41.1,37.0,43.6,28.3,20.8,86,61,40,29.90,29.51,31,5,31,0.01
2013-2-1,44.3,37.8,32.7,30.5,11.4,-3.7,64,35,14,30.28,29.92,14,5,33,0.00
2013-2-2,43.9,35.9,28.7,36.4,23.5,9.2,93,64,29,30.30,29.98,17,2,17,0.19
2013-2-3,52.5,43.1,35.3,36.8,30.7,24.4,93,64,34,29.99,29.81,26,4,26,0.01
2013-2-4,50.7,42.3,33.2,34.8,28.5,22.0,84,60,35,30.06,29.92,16,1,16,0.00
2013-2-5,61.6,48.9,36.9,45.3,36.9,28.2,88,65,34,29.93,29.81,27,2,27,0.00
2013-2-6,67.4,53.0,41.3,44.6,36.5,20.9,98,62,19,30.07,29.90,12,2,12,0.01
2013-2-7,54.5,50.5,47.0,47.3,38.7,27.3,93,66,37,30.10,29.87,19,7,19,0.34
2013-2-8,59.0,51.5,42.5,48.0,40.5,23.8,91,69,34,30.02,29.80,24,3,24,0.00
2013-2-9,59.8,47.2,34.4,40.3,32.2,16.3,94,61,23,30.22,30.01,9,1,9,0.00
2013-2-10,57.2,50.3,45.2,48.7,36.9,25.3,96,62,37,30.31,30.06,15,5,15,0.69
2013-2-11,57.6,53.5,49.9,55.2,51.0,42.0,98,91,68,30.07,29.88,10,1,10,0.18
2013-2-12,58.0,51.3,45.1,47.3,41.0,31.5,91,70,37,30.00,29.78,14,2,14,0.17
2013-2-13,55.1,48.1,43.5,46.4,40.7,31.9,93,76,57,29.80,29.58,18,5,18,0.01
2013-2-14,43.3,41.3,37.8,35.4,33.3,31.6,82,73,66,29.83,29.80,11,2,11,0.00
2013-2-15,61.5,49.1,36.9,40.4,36.1,31.5,95,65,33,30.01,29.83,10,2,21,0.00
2013-2-16,46.4,39.4,31.3,36.1,24.4,9.7,78,56,27,29.99,29.73,37,8,37,0.00
2013-2-17,44.5,36.2,29.4,21.9,11.3,0.3,58,37,18,30.19,29.99,35,7,35,0.00
2013-2-18,56.2,43.0,29.8,32.6,24.2,14.5,85,50,27,30.28,30.10,14,1,14,0.00
2013-2-19,57.0,46.0,39.2,44.5,31.8,13.6,94,62,27,30.10,29.80,30,3,30,0.20
2013-2-20,59.0,45.9,33.8,31.4,19.0,7.2,80,37,17,30.03,29.92,14,1,14,0.00
2013-2-21,58.0,47.4,35.0,43.4,27.1,14.3,83,50,21,30.12,29.96,18,2,18,0.07
2013-2-22,47.7,42.9,40.8,43.1,39.7,36.3,95,88,80,30.15,30.01,19,7,19,0.43
2013-2-23,47.4,44.5,41.6,46.3,42.3,38.6,97,92,87,30.03,29.75,13,2,13,0.38
2013-2-24,67.8,53.0,40.8,47.0,38.0,19.4,99,64,19,29.89,29.77,12,1,13,0.00
2013-2-25,50.7,46.5,39.5,39.7,32.7,25.4,90,59,44,30.04,29.87,23,9,23,0.02
2013-2-26,45.5,41.8,38.0,43.3,39.7,35.7,97,92,76,29.92,29.50,23,6,23,1.52
2013-2-27,58.6,50.0,42.2,38.4,35.2,32.1,81,58,40,29.72,29.61,17,3,21,0.00
2013-2-28,48.8,43.6,37.8,36.3,27.8,23.5,66,54,40,29.84,29.65,27,6,27,0.00
2013-3-1,51.0,42.8,32.7,35.8,30.1,25.0,89,62,41,29.86,29.74,18,2,18,0.00
2013-3-2,47.1,41.2,35.0,36.8,30.5,19.2,95,68,38,29.87,29.75,24,5,24,0.17
2013-3-3,49.1,37.7,30.6,24.4,20.4,13.8,70,51,25,29.95,29.80,22,3,22,0.00
2013-3-4,55.6,42.3,30.0,38.6,25.8,15.3,89,55,27,30.08,29.94,12,1,12,0.00
2013-3-5,51.0,45.8,42.1,48.4,39.9,29.3,97,80,60,29.98,29.58,24,2,24,0.48
2013-3-6,44.3,39.9,35.5,31.5,26.5,19.8,81,59,45,30.05,29.66,37,8,37,0.01
2013-3-7,58.0,44.6,31.9,39.7,31.9,27.5,95,64,35,30.17,30.02,10,2,11,0.00
2013-3-8,61.3,46.2,32.7,41.0,30.1,21.1,86,57,24,30.23,30.09,12,1,12,0.00
2013-3-9,62.9,50.2,37.6,43.5,33.8,25.5,87,57,27,30.26,30.12,10,1,10,0.00
2013-3-10,66.3,56.2,47.6,48.2,40.4,33.2,83,58,31,30.18,30.02,10,1,10,0.00
2013-3-11,59.3,55.9,53.6,56.7,49.9,43.3,97,81,64,30.05,29.68,19,2,19,0.51
2013-3-12,67.9,57.6,49.2,56.6,41.9,16.5,98,64,16,29.93,29.63,28,4,28,0.01
2013-3-13,54.2,47.8,39.3,35.5,26.0,18.3,83,44,26,30.10,29.92,30,7,30,0.00
2013-3-14,56.2,43.7,32.5,29.6,20.7,7.0,69,42,19,30.24,30.06,22,4,22,0.00
2013-3-15,73.0,54.3,36.6,48.0,34.3,14.5,85,50,26,30.11,29.80,22,1,22,0.00
2013-3-16,77.2,67.1,56.6,47.7,44.1,40.4,69,45,30,29.83,29.65,19,2,19,0.00
2013-3-17,73.3,64.3,53.5,51.8,47.6,41.8,86,56,34,29.87,29.74,10,1,15,0.00
2013-3-18,61.3,47.1,43.8,49.9,43.6,41.4,96,88,65,29.99,29.78,22,6,22,0.43
2013-3-19,65.3,53.6,42.6,45.7,32.8,13.9,98,56,18,29.97,29.77,34,5,34,0.01
2013-3-20,59.8,50.4,42.5,34.2,22.2,12.8,66,35,16,30.02,29.72,30,3,30,0.00
2013-3-21,48.5,41.6,34.7,31.8,14.7,3.4,63,34,20,29.87,29.73,31,8,31,0.00
2013-3-22,49.6,42.5,35.9,34.7,23.3,13.4,65,47,34,30.00,29.87,11,1,12,0.00
2013-3-23,53.8,47.9,42.5,47.7,41.5,30.5,93,79,55,29.94,29.78,11,2,11,0.12
2013-3-24,50.1,48.0,45.4,47.5,44.3,41.3,94,87,75,29.80,29.46,25,7,25,1.01
2013-3-25,46.1,41.1,36.8,45.0,26.7,22.0,97,57,43,29.88,29.48,33,8,33,0.01
2013-3-26,47.1,40.1,32.7,29.4,24.9,20.0,72,55,36,30.13,29.86,28,6,30,0.00
2013-3-27,58.4,45.1,34.9,29.1,24.0,14.2,76,46,19,30.20,30.05,22,4,23,0.00
2013-3-28,61.5,48.4,34.9,37.3,26.0,10.8,93,48,14,30.23,30.05,27,3,29,0.00
2013-3-29,57.5,49.7,38.3,43.5,34.2,24.5,86,57,30,30.26,30.10,16,2,16,0.00
2013-3-30,67.6,57.3,49.1,50.0,43.4,38.7,84,61,36,30.11,29.91,11,1,11,0.04
2013-3-31,68.8,59.6,52.8,56.5,53.6,50.1,97,82,54,29.94,29.73,16,1,16,0.28
2013-4-1,70.3,62.6,54.5,55.5,44.7,32.3,95,57,27,29.88,29.72,24,4,24,0.00
2013-4-2,70.1,59.2,51.0,39.1,28.8,16.8,53,33,17,30.03,29.87,18,4,18,0.00
2013-4-3,60.2,55.9,50.8,35.8,27.9,20.1,45,34,26,30.14,29.99,22,4,22,0.00
2013-4-4,56.5,47.2,41.5,41.9,36.8,27.9,93,70,37,30.12,29.89,25,9,26,0.23
2013-4-5,68.8,52.7,41.8,51.4,43.1,38.8,94,72,40,29.95,29.82,12,1,13,0.00
2013-4-6,70.8,58.4,44.6,49.9,40.8,31.9,93,57,26,30.09,29.95,12,1,12,0.00
2013-4-7,72.3,59.7,47.0,54.0,46.6,41.4,92,64,37,30.13,29.97,11,1,12,0.00
2013-4-8,77.0,64.7,54.5,58.2,52.7,47.4,88,67,40,30.04,29.93,12,1,12,0.00
2013-4-9,80.9,67.9,56.3,60.0,55.5,53.2,92,67,40,30.08,29.97,12,1,12,0.00
2013-4-10,66.4,62.5,60.7,58.0,56.5,55.4,86,81,77,29.99,29.96,3,0,3,0.00
2013-4-11,78.1,68.8,61.0,65.0,60.1,57.1,90,75,53,29.85,29.57,5,1,13,0.02
2013-4-12,73.7,68.0,62.7,65.0,51.2,34.9,94,61,25,29.72,29.53,9,4,30,0.71
2013-4-13,79.2,67.2,49.8,50.9,41.0,30.9,94,43,18,29.89,29.73,12,1,13,0.00
2013-4-14,69.1,61.9,55.6,56.1,48.9,39.4,92,64,34,29.96,29.84,17,3,17,0.02
2013-4-15,71.8,63.9,57.2,60.6,57.2,54.3,94,80,60,30.06,29.84,13,3,14,0.12
2013-4-16,79.4,69.1,62.4,63.1,58.8,56.2,87,71,46,30.16,30.04,11,1,11,0.01
2013-4-17,81.8,68.3,62.4,66.6,62.4,60.4,95,83,51,30.12,29.98,24,2,24,0.10
2013-4-18,79.4,69.6,63.7,63.7,61.0,56.8,95,76,49,30.01,29.82,12,1,12,0.00
2013-4-19,70.3,63.7,52.3,66.2,59.2,41.6,93,85,66,29.84,29.65,13,1,15,0.63
2013-4-20,66.3,54.5,42.8,44.8,36.3,25.9,90,53,29,30.15,29.82,15,2,15,0.00
2013-4-21,64.7,57.2,47.4,47.2,42.1,33.8,87,59,35,30.28,30.14,23,7,23,0.00
2013-4-22,65.2,57.9,51.0,48.0,42.9,38.5,76,58,40,30.29,30.08,19,7,19,0.00
2013-4-23,73.7,60.0,48.5,53.7,46.3,39.8,87,63,39,30.16,29.97,13,1,13,0.00
2013-4-24,73.7,63.3,53.8,60.4,55.7,51.0,95,77,53,30.02,29.90,21,1,21,0.01
2013-4-25,75.3,63.9,54.7,60.0,46.8,27.6,95,59,22,30.15,29.94,12,2,12,0.00
2013-4-26,73.2,61.3,49.2,53.5,42.1,32.3,93,53,27,30.30,30.14,18,1,18,0.00
2013-4-27,63.2,58.4,55.3,56.3,52.9,45.1,93,82,55,30.24,30.12,15,3,15,0.16
2013-4-28,58.7,56.2,54.1,56.5,53.7,51.2,96,91,81,30.14,29.94,15,4,15,1.92
2013-4-29,73.3,63.7,56.6,59.6,56.5,53.2,95,79,56,29.97,29.80,12,2,12,0.05
2013-4-30,76.0,67.0,58.0,63.2,58.5,55.3,96,76,52,30.02,29.86,12,2,14,0.00
2013-5-1,68.1,64.6,60.2,60.8,56.0,53.0,85,74,62,30.13,30.01,24,8,24,0.00
2013-5-2,65.3,62.3,60.1,58.5,56.8,54.3,88,82,75,30.15,30.08,20,9,20,0.00
2013-5-3,64.0,60.6,58.7,57.5,55.5,51.8,93,84,71,30.10,29.95,27,10,27,0.00
2013-5-4,61.8,56.6,54.1,55.0,50.9,45.3,93,81,61,29.96,29.80,26,11,26,0.60
2013-5-5,56.5,54.7,52.6,54.0,52.0,48.8,93,91,87,29.85,29.72,23,11,23,1.03
2013-5-6,62.4,57.5,50.5,54.9,48.4,44.6,95,72,57,29.81,29.69,14,2,14,0.02
2013-5-7,70.8,58.7,49.8,56.9,50.2,46.2,96,76,44,29.84,29.74,33,2,33,0.22
2013-5-8,74.2,62.2,52.8,60.0,55.2,51.6,98,80,48,29.92,29.82,17,1,17,0.00
2013-5-9,81.1,67.3,56.7,67.2,59.0,54.1,93,77,42,29.97,29.89,26,1,26,0.55
2013-5-10,78.8,68.6,59.9,64.8,61.1,57.4,98,79,52,29.96,29.83,17,0,17,0.01
2013-5-11,77.6,68.7,62.4,64.8,61.5,54.2,95,79,52,29.85,29.71,37,1,37,0.18
2013-5-12,72.0,63.9,54.7,60.2,43.3,24.3,95,53,18,29.94,29.76,24,5,24,0.00
2013-5-13,70.8,60.4,49.6,40.6,33.6,15.2,67,39,13,30.08,29.93,32,5,32,0.00
2013-5-14,76.7,63.4,49.4,55.8,45.2,33.2,79,53,34,30.15,29.95,14,2,14,0.00
2013-5-15,89.3,74.9,61.6,60.5,56.1,50.4,78,55,27,29.99,29.81,13,1,14,0.00
2013-5-16,73.3,67.4,65.3,59.5,56.7,54.3,75,69,59,29.88,29.85,5,0,5,0.00
2013-5-17,82.2,71.9,62.1,64.0,61.4,57.7,94,72,46,29.97,29.89,2,0,10,0.00
2013-5-18,73.7,69.3,65.3,67.2,64.7,60.1,96,85,72,30.00,29.91,4,1,10,0.34
2013-5-19,73.9,69.3,67.1,67.4,66.4,65.1,97,91,76,29.99,29.88,5,0,11,0.11
2013-5-20,81.1,71.1,64.0,69.8,66.1,63.0,100,85,60,30.00,29.90,11,1,11,0.00
2013-5-21,88.0,73.8,66.8,70.4,66.8,59.7,97,81,49,29.92,29.79,38,1,38,1.10
2013-5-22,84.9,72.2,65.6,70.3,66.4,62.6,98,83,59,29.89,29.73,14,1,14,0.30
2013-5-23,83.8,72.8,65.5,67.4,61.8,52.8,96,72,36,29.83,29.71,24,2,24,0.17
2013-5-24,79.8,70.4,60.4,56.3,48.0,33.4,73,47,21,30.09,29.78,23,4,23,0.00
2013-5-25,77.9,65.9,54.2,59.2,48.6,38.6,79,56,29,30.19,30.04,12,2,16,0.00
2013-5-26,77.2,67.1,59.9,60.9,52.0,42.2,80,59,40,30.18,30.03,12,2,12,0.00
2013-5-27,82.0,71.0,59.9,65.5,58.8,49.3,93,68,39,30.14,29.99,10,1,10,0.00
2013-5-28,84.9,73.6,65.3,67.4,63.1,57.1,95,72,43,30.10,30.00,14,1,14,0.00
2013-5-29,80.7,72.2,65.6,65.9,63.1,60.9,92,74,53,30.11,30.03,10,0,10,0.00
2013-5-30,82.2,73.8,66.6,68.3,64.1,60.0,89,73,49,30.15,30.02,3,0,11,0.00
2013-5-31,85.9,77.7,69.3,69.1,66.1,61.9,92,69,47,30.10,29.96,3,0,10,0.00
2013-6-1,84.9,76.0,69.8,70.1,66.9,63.1,94,75,50,30.00,29.87,14,1,14,0.08
2013-6-2,77.7,72.1,69.4,70.5,68.1,65.1,97,87,75,29.92,29.78,14,1,14,0.38
2013-6-3,82.8,73.4,67.9,73.4,68.8,63.6,98,86,66,29.81,29.71,33,1,33,0.56
2013-6-4,86.1,76.1,67.4,70.4,65.4,62.1,94,71,48,29.91,29.81,14,1,14,0.00
2013-6-5,82.4,74.1,66.8,70.0,67.1,64.1,95,79,61,29.95,29.80,22,2,23,0.55
2013-6-6,75.4,70.5,66.6,70.9,67.5,64.1,95,90,80,29.87,29.66,12,1,12,0.18
2013-6-7,83.2,72.4,68.6,73.2,68.5,64.9,97,88,64,29.71,29.55,15,1,18,0.47
2013-6-8,83.6,74.8,67.8,69.8,67.2,64.3,97,79,57,29.95,29.69,10,0,10,0.00
2013-6-9,84.7,74.5,70.3,71.5,69.7,67.1,97,86,57,30.00,29.88,24,1,24,0.68
2013-6-10,78.1,73.1,66.0,71.7,68.8,62.8,97,87,70,29.93,29.79,48,1,48,0.92
2013-6-11,89.0,78.7,70.8,71.3,68.7,64.3,97,74,47,29.88,29.79,8,1,14,0.46
2013-6-12,92.3,78.5,69.1,76.0,70.4,64.0,93,77,56,29.90,29.79,11,0,11,0.00
2013-6-13,91.0,76.7,70.8,75.0,70.4,64.3,96,83,42,29.81,29.57,33,1,34,0.34
2013-6-14,85.7,75.4,65.5,69.7,61.2,55.8,97,64,40,29.89,29.66,14,2,14,0.00
2013-6-15,84.7,75.5,66.0,66.5,61.1,56.1,81,62,43,30.01,29.89,11,1,11,0.00
2013-6-16,86.7,76.7,67.8,71.2,66.6,63.3,96,73,49,30.03,29.88,10,0,10,0.00
2013-6-17,85.7,75.5,70.9,73.1,70.0,65.7,96,84,60,29.92,29.79,17,1,17,0.25
2013-6-18,71.6,71.4,71.3,70.6,70.2,69.3,97,96,95,29.86,29.78,5,0,5,0.00
2013-6-19,82.6,76.4,71.1,72.1,66.6,63.9,92,73,55,29.95,29.74,6,2,11,0.00
2013-6-20,82.6,75.8,70.3,70.4,67.1,63.4,92,76,56,30.08,29.96,7,3,16,0.00
2013-6-21,83.0,76.6,70.9,70.2,65.1,61.3,89,69,48,30.14,30.03,5,3,12,0.00
2013-6-22,86.7,77.1,68.9,68.9,65.4,57.9,87,69,40,30.10,29.97,6,1,12,0.00
2013-6-23,87.4,77.5,69.8,72.8,67.9,63.4,87,73,53,30.08,29.96,14,1,14,0.00
2013-6-24,88.0,78.6,71.8,72.2,70.3,66.9,95,77,55,30.08,29.96,12,1,13,0.10
2013-6-25,87.6,77.9,71.1,74.1,70.2,67.8,96,79,57,30.02,29.89,13,1,13,0.00
2013-6-26,88.8,78.5,70.4,73.7,71.0,67.9,97,79,56,29.93,29.79,12,0,12,0.00
2013-6-27,88.6,80.8,73.9,75.0,71.9,68.2,95,76,53,29.83,29.61,18,1,18,0.00
2013-6-28,92.5,81.1,72.1,74.1,69.1,60.5,88,69,36,29.67,29.48,20,0,20,0.00
2013-6-29,88.0,79.0,70.4,70.9,67.0,55.6,96,70,36,29.57,29.49,16,1,16,0.00
2013-6-30,85.3,77.2,70.9,70.4,67.8,64.5,90,74,51,29.66,29.56,0,0,0,0.00
2013-7-1,83.6,76.5,70.3,72.7,69.0,66.3,97,79,58,29.82,29.66,23,1,23,0.43
2013-7-2,84.5,76.3,71.3,72.4,69.6,67.4,95,81,59,29.91,29.81,13,2,13,0.02
2013-7-3,82.4,73.8,68.1,72.5,70.1,66.3,97,89,68,30.08,29.95,29,3,29,2.01
2013-7-4,75.4,71.7,68.9,73.4,69.6,65.8,96,93,81,30.09,30.00,10,3,13,2.18
2013-7-5,81.1,74.4,71.5,72.6,70.4,68.1,97,88,66,30.11,30.03,15,2,15,0.22
2013-7-6,85.7,75.8,71.1,73.8,71.4,69.1,97,87,60,30.08,29.95,13,1,15,0.66
2013-7-7,83.4,76.5,72.5,74.2,72.1,69.8,98,87,65,30.04,29.95,14,0,14,0.91
2013-7-8,87.4,78.8,72.3,75.9,72.4,69.7,97,82,59,30.06,29.97,11,1,11,0.46
2013-7-9,88.2,77.4,71.8,77.0,71.9,67.8,97,84,62,30.07,29.91,16,1,16,0.96
2013-7-10,86.7,76.3,73.0,74.3,72.0,69.1,97,87,62,30.00,29.83,15,0,15,0.10
2013-7-11,81.4,76.5,73.2,75.2,73.0,67.3,97,89,77,29.86,29.74,14,0,23,0.01
2013-7-12,86.7,75.7,69.8,74.5,69.3,65.0,97,81,58,29.85,29.75,23,2,25,1.07
2013-7-13,78.1,74.0,69.3,71.1,68.7,65.0,95,84,72,29.97,29.84,19,6,19,1.21
2013-7-14,79.6,75.9,73.7,73.2,71.4,68.2,95,86,72,30.12,29.94,24,6,24,0.74
2013-7-15,83.6,77.4,73.3,74.7,71.3,68.8,95,82,63,30.19,30.10,14,4,14,0.14
2013-7-16,91.2,81.3,73.9,76.4,72.6,69.9,96,77,52,30.18,30.08,7,0,9,0.00
2013-7-17,93.2,79.3,71.8,74.9,71.5,66.4,95,79,50,30.13,30.00,23,2,23,0.24
2013-7-18,91.0,80.3,72.0,76.1,72.0,69.3,96,77,52,30.08,29.92,10,1,10,0.00
2013-7-19,90.7,81.2,73.0,77.5,72.9,69.8,95,77,52,29.99,29.85,11,1,11,0.00
2013-7-20,87.0,77.6,73.3,75.1,73.3,66.9,97,87,62,29.91,29.81,22,1,24,0.54
2013-7-21,89.0,76.8,71.8,76.0,72.5,69.5,98,88,55,29.88,29.78,30,2,30,2.15
2013-7-22,86.3,77.6,71.3,74.7,71.6,70.0,98,83,60,29.88,29.72,18,1,18,0.04
2013-7-23,87.6,77.9,71.1,73.6,69.8,66.5,94,77,56,29.77,29.67,15,1,15,0.00
2013-7-24,82.6,74.5,71.6,72.2,70.3,68.5,93,87,65,29.69,29.63,5,0,9,0.00
2013-7-25,87.0,76.2,70.6,72.6,68.2,66.0,90,77,55,29.88,29.70,12,3,18,0.00
2013-7-26,87.4,77.6,72.1,73.9,69.7,66.1,95,78,53,29.97,29.85,17,2,17,0.42
2013-7-27,83.4,76.4,71.6,73.1,71.4,68.5,97,85,67,29.89,29.75,8,0,12,0.25
2013-7-28,85.7,76.5,69.3,71.9,69.7,66.4,98,81,55,29.89,29.78,11,0,11,0.01
2013-7-29,86.7,76.8,68.8,73.1,67.5,61.4,89,74,49,30.02,29.88,10,1,10,0.00
2013-7-30,87.8,78.5,70.8,74.0,68.3,63.5,86,72,53,30.08,29.98,11,2,17,0.00
2013-7-31,82.4,76.9,73.0,72.8,70.4,66.5,93,81,64,30.03,29.83,9,2,17,0.03
2013-8-1,86.7,78.0,73.0,75.3,71.8,67.1,93,82,60,29.87,29.74,21,1,24,0.05
2013-8-2,89.0,79.5,72.7,75.7,70.4,66.5,93,75,53,29.90,29.79,1,0,1,0.00
2013-8-3,87.0,79.5,73.3,74.5,70.4,64.6,95,75,52,29.90,29.81,11,0,11,0.00
2013-8-4,91.6,80.3,73.2,75.2,70.0,66.2,91,72,47,29.88,29.78,1,0,1,0.02
2013-8-5,87.0,78.9,73.5,73.5,69.0,63.9,85,72,59,29.93,29.82,10,1,10,0.00
2013-8-6,85.9,78.1,73.2,75.1,72.7,70.2,98,84,63,29.92,29.82,16,0,16,3.69
2013-8-7,78.8,75.5,74.0,75.4,73.1,72.0,98,92,81,29.94,29.87,7,0,7,1.75
2013-8-8,85.3,77.3,74.4,75.4,73.1,71.4,96,87,69,29.95,29.87,0,0,0,0.12
2013-8-9,88.6,78.6,74.6,77.3,74.0,70.9,96,86,63,29.95,29.89,21,0,21,0.19
2013-8-10,89.9,79.4,75.1,76.7,73.8,68.9,97,84,57,29.98,29.91,24,1,24,0.01
2013-8-11,89.7,78.6,72.0,74.9,72.5,69.8,97,83,59,30.01,29.93,22,1,25,0.00
2013-8-12,91.8,80.3,73.7,76.4,72.9,70.3,95,79,55,29.97,29.83,20,0,20,0.00
2013-8-13,88.0,79.6,73.2,74.8,72.2,68.2,95,79,58,29.85,29.68,14,0,14,0.00
2013-8-14,80.9,76.6,71.6,70.2,67.7,64.5,86,74,61,29.94,29.73,16,1,16,0.03
2013-8-15,73.0,71.6,67.9,67.0,63.7,58.0,83,76,63,30.01,29.92,13,6,20,0.01
2013-8-16,74.4,70.0,65.5,64.3,61.2,57.8,86,74,64,30.03,29.94,17,7,17,0.01
2013-8-17,69.6,67.8,66.6,65.6,62.3,58.4,93,83,70,30.06,29.99,17,5,17,0.11
2013-8-18,76.0,70.3,66.4,70.8,66.8,63.9,95,89,76,30.11,30.01,12,2,12,0.58
2013-8-19,76.5,72.7,68.6,71.4,68.8,67.2,97,88,76,30.07,29.96,16,3,16,1.58
2013-8-20,84.5,76.3,72.7,72.6,69.6,67.2,92,80,61,30.06,29.98,7,1,7,0.00
2013-8-21,82.6,75.6,71.8,73.4,71.3,68.4,96,87,67,30.12,30.00,11,1,11,0.24
2013-8-22,86.7,76.3,70.9,74.4,71.4,68.3,96,85,60,30.05,29.92,19,1,19,0.28
2013-8-23,89.9,76.9,70.9,74.8,70.3,66.8,98,82,49,29.94,29.83,23,1,23,0.41
2013-8-24,80.7,75.0,69.1,71.2,66.5,62.0,96,76,56,30.16,29.92,19,6,19,0.00
2013-8-25,80.1,73.7,67.3,67.9,63.1,57.7,86,70,48,30.26,30.14,14,4,14,0.00
2013-8-26,84.7,74.3,65.3,69.1,65.0,58.3,92,74,51,30.20,30.01,9,1,9,0.00
2013-8-27,88.2,76.4,66.4,72.8,67.3,61.6,96,75,49,30.04,29.89,10,0,10,0.01
2013-8-28,86.5,76.0,71.3,70.9,68.0,65.5,89,77,52,29.92,29.85,6,1,6,0.00
2013-8-29,92.5,83.7,73.2,79.1,72.9,67.0,93,72,47,29.85,29.75,6,1,7,0.00
2013-8-30,84.9,78.6,74.9,77.2,73.0,70.5,93,83,65,29.93,29.80,12,3,12,0.44
2013-8-31,88.2,77.5,73.5,76.7,72.9,70.6,96,86,60,29.84,29.76,19,1,26,0.07
2013-9-1,86.7,77.5,72.1,76.8,72.9,68.3,98,86,65,29.80,29.68,24,1,24,0.23
2013-9-2,85.7,78.1,72.0,75.1,71.7,68.8,97,81,64,29.79,29.68,16,0,16,0.01
2013-9-3,90.5,77.9,67.8,74.9,70.7,65.0,96,80,52,29.84,29.71,28,2,28,0.74
2013-9-4,87.8,77.9,71.5,73.7,69.2,64.4,95,76,52,29.97,29.83,9,1,15,0.01
2013-9-5,89.7,78.8,71.3,74.6,70.2,64.4,93,77,46,29.99,29.92,9,1,9,0.00
2013-9-6,86.7,76.4,70.4,71.2,66.0,60.7,88,71,45,30.05,29.93,20,3,20,0.00
2013-9-7,85.5,75.6,68.4,72.5,67.1,62.4,91,76,54,30.02,29.86,9,1,9,0.00
2013-9-8,88.4,77.4,69.3,74.6,68.7,61.0,92,76,41,29.88,29.80,13,1,13,0.00
2013-9-9,89.3,79.2,72.1,74.8,69.9,66.0,92,74,49,29.99,29.85,9,2,9,0.00
2013-9-10,89.0,79.2,71.8,74.7,70.6,66.7,93,76,49,30.11,29.98,6,1,6,0.00
2013-9-11,89.3,77.3,71.1,74.7,70.1,65.0,95,80,47,30.09,29.96,8,1,8,0.00
2013-9-12,87.8,77.6,72.5,73.8,71.0,66.0,94,81,53,29.98,29.74,15,1,15,0.00
2013-9-13,84.1,76.6,70.1,70.9,62.5,52.1,93,64,34,29.76,29.65,21,4,21,0.00
2013-9-14,78.1,70.3,63.4,64.8,57.8,51.3,86,66,48,29.98,29.75,16,4,16,0.00
2013-9-15,83.4,72.9,67.6,70.1,63.1,57.2,87,72,53,30.08,29.97,13,3,13,0.00
2013-9-16,86.3,76.4,68.6,70.3,66.3,62.1,94,73,46,30.01,29.91,10,2,12,0.00
2013-9-17,77.4,71.3,68.6,64.5,60.0,55.4,75,68,61,30.17,29.99,19,8,19,0.00
2013-9-18,73.2,69.5,65.2,63.9,59.3,55.9,82,70,59,30.16,30.03,14,4,14,0.00
2013-9-19,82.4,72.6,63.7,70.2,64.3,60.5,95,77,54,30.06,29.94,7,1,10,0.00
2013-9-20,86.3,75.9,67.9,70.5,66.8,63.6,94,75,49,29.95,29.79,6,0,11,0.00
2013-9-21,73.3,70.3,67.4,70.5,67.6,65.3,98,91,85,29.81,29.54,10,1,14,0.83
2013-9-22,80.5,71.0,63.2,66.2,62.2,58.8,96,75,50,29.77,29.62,10,2,10,0.01
2013-9-23,79.0,70.9,66.6,63.3,59.4,54.4,81,68,47,29.93,29.75,15,2,15,0.00
2013-9-24,74.0,69.8,65.8,65.9,62.7,59.0,94,79,64,29.95,29.80,9,1,9,0.00
2013-9-25,71.5,66.7,64.0,66.3,63.5,61.1,96,90,78,29.82,29.75,14,3,14,1.29
2013-9-26,77.0,69.6,65.5,65.8,62.1,58.9,91,78,60,29.91,29.76,12,3,12,0.00
2013-9-27,77.2,69.4,62.4,63.7,60.0,55.4,93,73,53,30.04,29.90,3,0,3,0.01
2013-9-28,73.2,68.4,63.4,61.4,57.9,54.5,83,69,55,30.13,30.01,15,4,15,0.00
2013-9-29,70.8,64.9,61.8,58.7,55.7,53.2,84,72,58,30.07,29.97,14,4,14,0.00
2013-9-30,76.5,70.5,63.4,65.5,59.5,54.7,93,69,48,29.99,29.87,0,0,0,0.00
2013-10-1,80.9,70.1,60.9,66.5,60.9,55.0,94,75,44,30.03,29.92,0,0,0,0.00
2013-10-2,79.0,66.8,62.9,64.5,61.6,59.1,93,84,61,30.04,29.98,1,0,1,0.00
2013-10-3,84.0,75.6,65.2,67.7,64.3,59.4,95,70,46,30.01,29.93,2,0,2,0.00
2013-10-4,85.3,73.4,63.9,69.2,63.9,57.9,91,74,41,30.03,29.95,2,0,2,0.00
2013-10-5,86.1,74.4,65.6,69.8,65.4,59.9,93,75,46,30.01,29.89,2,0,2,0.00
2013-10-6,82.4,74.2,68.3,69.4,66.3,61.7,94,77,52,29.93,29.73,18,0,18,0.24
2013-10-7,79.0,71.8,66.4,69.1,65.7,56.2,97,82,66,29.85,29.68,18,3,18,1.19
2013-10-8,67.6,64.0,62.0,59.5,54.4,50.0,80,71,60,30.03,29.84,22,6,22,0.00
2013-10-9,73.0,64.7,59.5,61.4,54.7,44.3,89,72,40,30.11,29.99,10,3,18,0.00
2013-10-10,78.6,65.9,54.8,65.6,57.2,51.2,94,75,45,30.02,29.86,6,0,7,0.00
2013-10-11,81.8,69.5,60.5,67.6,58.5,51.2,88,70,40,29.91,29.80,0,0,0,0.00
2013-10-12,79.2,70.2,60.7,66.0,59.9,54.7,94,71,46,29.96,29.84,1,0,1,0.00
2013-10-13,75.4,70.4,66.9,67.3,63.6,60.2,92,80,65,30.09,29.95,3,0,3,0.10
2013-10-14,72.1,68.5,65.0,65.8,62.7,60.7,93,82,71,30.11,30.01,5,0,5,0.00
2013-10-15,68.6,65.1,61.3,63.1,58.9,55.4,92,81,69,30.06,29.94,17,3,17,0.00
2013-10-16,72.0,65.9,60.1,62.3,59.2,53.2,96,80,57,29.98,29.84,2,0,2,0.00
2013-10-17,68.4,66.2,64.0,66.4,63.5,59.8,96,91,81,29.88,29.75,0,0,0,0.21
2013-10-18,72.7,65.3,59.5,64.8,59.7,54.8,98,83,56,29.90,29.78,2,0,2,0.01
2013-10-19,65.0,61.6,55.0,61.8,57.3,50.9,95,86,72,29.85,29.75,3,0,3,0.00
2013-10-20,66.9,58.1,51.7,56.5,48.9,41.4,91,73,40,29.97,29.84,3,0,3,0.01
2013-10-21,56.7,54.6,52.8,53.7,51.8,49.0,93,91,87,30.01,29.97,2,0,2,0.01
2013-10-22,68.9,61.5,57.3,58.0,56.1,53.4,92,83,59,29.92,29.70,0,0,0,0.00
2013-10-23,62.1,55.3,45.2,55.8,41.6,30.3,93,62,36,29.95,29.66,26,5,32,0.00
2013-10-24,53.6,45.0,41.1,44.1,38.7,32.2,93,79,57,30.08,29.93,10,1,11,0.00
2013-10-25,55.9,51.0,42.8,43.3,33.0,26.5,85,51,34,30.27,30.06,13,4,20,0.00
2013-10-26,57.5,48.2,37.8,42.2,36.8,31.2,95,66,43,30.26,30.00,14,2,14,0.00
2013-10-27,71.5,56.9,47.4,55.1,48.8,38.7,98,76,51,30.03,29.93,13,1,13,0.00
2013-10-28,67.1,60.8,56.5,58.5,55.3,52.1,95,83,64,30.15,30.00,2,0,2,0.07
2013-10-29,72.0,61.9,53.3,60.1,54.6,49.3,98,79,49,30.22,30.12,12,1,12,0.01
2013-10-30,76.5,65.8,58.4,62.0,58.4,54.9,96,79,52,30.18,30.03,13,1,13,0.00
2013-10-31,69.3,65.1,60.4,64.3,59.9,55.4,98,84,66,30.06,29.74,10,1,10,0.00
2013-11-1,72.8,66.2,58.0,64.4,61.9,48.3,96,86,67,29.77,29.53,21,2,21,0.25
2013-11-2,68.1,59.1,50.8,54.5,44.0,36.5,89,59,32,29.90,29.64,31,4,31,0.00
2013-11-3,62.3,53.7,44.3,50.0,43.0,35.0,95,70,37,30.24,29.89,10,1,12,0.00
2013-11-4,58.9,54.1,49.8,46.6,39.5,32.5,79,58,39,30.40,30.24,20,7,20,0.00
2013-11-5,61.3,53.0,45.5,50.1,40.4,32.7,80,63,40,30.43,30.29,19,7,19,0.00
2013-11-6,68.8,61.2,54.5,59.0,53.4,46.3,88,76,58,30.29,30.01,13,3,13,0.00
2013-11-7,71.3,61.1,46.8,61.7,47.5,23.4,95,66,22,30.04,29.85,25,3,25,0.03
2013-11-8,60.1,51.0,40.3,44.8,36.1,24.2,87,60,26,30.22,30.04,15,2,15,0.00
2013-11-9,58.7,51.1,43.3,44.2,38.5,31.3,89,64,37,30.27,30.12,9,1,9,0.00
2013-11-10,73.2,58.8,46.2,48.6,39.6,30.0,93,54,22,30.14,30.01,18,2,18,0.00
2013-11-11,55.4,50.2,45.4,45.5,39.8,28.8,92,69,42,30.25,30.08,13,2,13,0.00
2013-11-12,66.3,51.1,36.5,46.2,35.9,18.9,95,57,36,30.35,29.96,30,11,30,0.00
2013-11-13,46.0,37.7,32.8,27.7,21.1,12.7,66,52,27,30.46,30.34,22,6,22,0.00
2013-11-14,57.3,48.3,32.8,38.4,29.8,19.0,92,53,24,30.39,30.23,11,1,11,0.00
2013-11-15,55.3,46.9,40.3,45.5,38.5,33.3,87,73,49,30.24,30.15,7,1,7,0.00
2013-11-16,61.2,58.4,52.2,57.3,54.5,49.7,96,87,81,30.16,30.06,11,2,11,0.00
2013-11-17,61.5,60.6,59.8,60.6,57.8,54.4,98,91,81,30.09,29.80,10,2,10,0.62
2013-11-18,73.5,62.8,55.3,61.7,53.8,28.2,99,77,21,29.88,29.74,25,2,29,0.01
2013-11-19,58.4,52.3,43.1,39.4,33.8,22.4,79,50,26,30.13,29.87,15,3,15,0.00
2013-11-20,50.4,48.9,47.3,35.2,32.5,29.5,59,53,48,30.17,30.12,16,9,16,0.00
2013-11-21,52.8,51.5,49.4,51.1,46.9,34.8,94,85,56,30.35,30.26,10,4,18,0.15
2013-11-22,61.3,56.5,52.8,57.8,54.6,50.9,100,94,85,30.29,30.01,7,1,7,0.02
2013-11-23,62.6,57.2,45.4,58.3,46.3,15.1,100,72,22,30.10,29.95,15,2,16,0.00
2013-11-24,46.0,40.3,32.9,28.6,18.5,9.6,66,43,23,30.43,30.09,12,4,18,0.00
2013-11-25,43.9,36.6,31.9,30.0,15.6,6.8,67,42,27,30.47,30.23,15,5,15,0.02
2013-11-26,51.3,45.9,36.5,50.6,44.6,27.7,98,95,62,30.23,29.53,17,5,17,2.98
2013-11-27,51.3,43.1,32.4,50.6,34.4,21.1,98,73,42,30.13,29.46,29,6,29,0.19
2013-11-28,46.8,37.3,29.0,35.5,27.8,21.6,94,70,43,30.39,30.13,7,0,7,0.00
2013-11-29,57.8,45.6,32.7,42.8,33.5,22.6,100,69,27,30.46,30.34,10,2,10,0.01
2013-11-30,49.1,43.7,38.5,36.4,29.8,22.8,79,59,36,30.52,30.27,21,5,21,0.00
2013-12-1,55.9,47.4,41.9,44.9,36.4,25.7,91,67,43,30.27,29.91,9,0,9,0.00
2013-12-2,57.6,50.0,39.1,49.0,44.2,37.2,96,81,58,29.91,29.70,10,1,10,0.00
2013-12-3,56.0,53.5,50.7,54.5,51.7,48.3,98,93,83,29.84,29.75,10,1,10,0.22
2013-12-4,60.7,58.0,55.4,59.3,56.6,53.7,98,95,91,29.95,29.82,9,2,9,0.01
2013-12-5,68.4,63.2,60.2,67.5,62.7,59.1,99,98,95,29.98,29.86,14,0,14,0.52
2013-12-6,73.0,68.6,63.7,67.0,64.8,62.2,98,88,75,29.93,29.83,20,1,20,0.35
2013-12-7,64.7,59.8,52.5,62.2,53.7,42.7,97,81,59,30.24,29.87,19,4,19,0.01
2013-12-8,52.5,44.0,39.6,45.2,41.1,37.9,98,90,69,30.27,30.16,17,8,17,0.46
2013-12-9,48.2,42.1,39.6,47.9,41.3,38.0,99,97,94,30.19,29.95,15,2,15,0.84
2013-12-10,59.6,48.8,38.2,51.8,36.9,19.7,99,68,32,30.23,29.82,36,4,36,0.19
2013-12-11,52.5,42.7,33.1,38.7,31.8,24.3,98,68,36,30.35,30.21,13,1,13,0.00
2013-12-12,53.5,42.8,34.3,38.8,30.4,15.1,99,66,22,30.32,30.20,10,1,10,0.00
2013-12-13,52.0,43.0,34.3,40.1,31.6,21.2,98,67,31,30.28,30.14,8,0,8,0.00
2013-12-14,49.8,47.4,44.9,48.0,43.7,30.8,98,88,51,30.14,29.68,17,4,17,1.41
2013-12-15,52.5,47.1,37.0,48.6,37.0,28.4,98,70,42,30.04,29.65,27,4,27,0.00
2013-12-16,60.2,45.5,33.8,37.2,32.4,23.9,98,66,27,30.10,29.98,18,1,18,0.00
2013-12-17,64.7,50.6,37.2,39.8,34.6,22.8,91,58,28,30.07,29.87,27,2,27,0.00
2013-12-18,55.1,46.6,38.9,36.6,23.7,12.8,75,42,20,30.20,29.98,27,2,27,0.00
2013-12-19,61.6,46.9,33.7,41.1,33.1,19.9,95,64,23,30.25,30.11,6,0,6,0.00
2013-12-20,58.1,50.0,42.1,49.4,42.7,35.9,93,77,55,30.15,30.04,6,0,6,0.00
2013-12-21,60.9,57.0,53.6,59.8,54.5,48.4,98,91,81,30.04,29.88,11,1,11,0.12
2013-12-22,67.3,62.0,59.2,64.7,61.4,58.6,100,98,88,29.94,29.84,25,1,25,1.82
2013-12-23,61.8,56.8,46.8,59.0,52.9,39.8,99,87,60,30.06,29.89,12,1,12,0.28
2013-12-24,48.5,42.8,35.2,40.9,29.3,17.8,90,61,31,30.32,30.06,26,4,26,0.00
2013-12-25,42.5,36.1,30.4,29.1,21.0,10.6,77,56,29,30.45,30.29,13,3,13,0.00
2013-12-26,54.8,41.6,30.9,41.2,31.1,21.5,90,68,36,30.31,30.14,9,1,9,0.00
2013-12-27,52.6,43.8,37.2,38.5,32.0,18.0,90,66,29,30.38,30.24,7,1,7,0.00
2013-12-28,50.7,44.0,35.9,43.0,36.9,32.5,99,77,50,30.32,29.96,15,2,15,0.45
2013-12-29,63.7,50.6,43.8,50.2,45.0,40.3,98,83,53,29.96,29.69,13,2,15,0.62
2013-12-30,55.0,47.8,41.3,43.2,40.8,35.4,97,78,56,30.03,29.86,12,0,12,0.00
2013-12-31,53.9,45.9,39.3,36.9,31.4,18.4,85,59,27,30.26,30.02,11,2,11,0.00
2014-1-1,50.2,43.4,38.8,38.2,34.7,29.5,93,73,48,30.29,30.06,10,1,10,0.00
2014-1-2,49.2,43.3,30.4,46.6,37.2,15.4,97,80,50,30.06,29.58,32,4,32,0.01